Radiation Dose at Monitoring Post of Fukushima Daini Nuclear Power Station
Date,Time,MP-1(microSv/h),MP-2(microSv/h),MP-3(microSv/h),MP-4(microSv/h),MP-5(microSv/h),MP-6(microSv/h),MP-7(microSv/h),Wind Direction,Wind Velocity(m/s),Rain
2021/07/08,00:00,0.157,0.144,0.226,0.221,0.226,0.122,0.078,north,2.5,No
2021/07/08,00:10,0.156,0.145,0.227,0.218,0.224,0.123,0.077,north,2.5,No
2021/07/08,00:20,0.155,0.144,0.226,0.221,0.226,0.123,0.079,north,2.0,No
2021/07/08,00:30,0.157,0.145,0.227,0.220,0.228,0.123,0.078,north,2.4,No
2021/07/08,00:40,0.156,0.144,0.227,0.220,0.224,0.123,0.077,north,0.9,No
2021/07/08,00:50,0.157,0.145,0.227,0.222,0.229,0.122,0.078,north,2.0,No
2021/07/08,01:00,0.157,0.145,0.227,0.221,0.227,0.122,0.077,north,1.5,No
2021/07/08,01:10,0.156,0.145,0.225,0.220,0.225,0.123,0.078,north,1.0,No
2021/07/08,01:20,0.157,0.145,0.228,0.223,0.229,0.123,0.078,north-northeast,1.1,No
2021/07/08,01:30,0.157,0.146,0.227,0.219,0.227,0.123,0.077,north,1.0,No
2021/07/08,01:40,0.157,0.144,0.225,0.220,0.226,0.123,0.078,north-northwest,1.1,No
2021/07/08,01:50,0.157,0.146,0.227,0.220,0.227,0.122,0.078,-,CALM,No
2021/07/08,02:00,0.156,0.144,0.226,0.218,0.226,0.122,0.077,-,CALM,No
2021/07/08,02:10,0.157,0.144,0.226,0.220,0.227,0.122,0.078,northwest,0.8,No
2021/07/08,02:20,0.156,0.146,0.227,0.221,0.227,0.122,0.079,-,CALM,No
2021/07/08,02:30,0.155,0.143,0.227,0.219,0.224,0.122,0.077,-,CALM,No
2021/07/08,02:40,0.157,0.144,0.227,0.223,0.226,0.123,0.078,-,CALM,No
2021/07/08,02:50,0.157,0.145,0.228,0.220,0.228,0.122,0.078,-,CALM,No
2021/07/08,03:00,0.157,0.147,0.225,0.220,0.225,0.124,0.078,northwest,0.7,Yes
2021/07/08,03:10,0.159,0.146,0.229,0.223,0.230,0.124,0.080,west,0.6,Yes
2021/07/08,03:20,0.158,0.146,0.227,0.221,0.227,0.124,0.080,northwest,1.1,No
2021/07/08,03:30,0.157,0.145,0.228,0.222,0.227,0.124,0.080,northwest,1.2,No
2021/07/08,03:40,0.159,0.146,0.228,0.223,0.230,0.124,0.079,northwest,1.4,No
2021/07/08,03:50,0.157,0.145,0.226,0.220,0.227,0.124,0.079,northwest,1.5,No
2021/07/08,04:00,0.159,0.146,0.229,0.223,0.227,0.124,0.078,west-northwest,1.4,No
2021/07/08,04:10,0.158,0.145,0.227,0.223,0.229,0.124,0.078,northwest,1.8,No
2021/07/08,04:20,0.157,0.145,0.226,0.220,0.226,0.123,0.078,northwest,1.6,No
2021/07/08,04:30,0.158,0.146,0.228,0.222,0.227,0.125,0.079,north-northwest,2.2,No
2021/07/08,04:40,0.157,0.144,0.225,0.220,0.228,0.124,0.079,north,2.6,No
2021/07/08,04:50,0.157,0.144,0.228,0.220,0.225,0.122,0.078,north,2.9,No
2021/07/08,05:00,0.159,0.145,0.227,0.222,0.227,0.123,0.078,north-northwest,2.4,No
2021/07/08,05:10,0.156,0.144,0.225,0.219,0.226,0.123,0.077,north,3.0,No
2021/07/08,05:20,0.156,0.145,0.229,0.222,0.225,0.122,0.078,north,2.6,No
2021/07/08,05:30,0.157,0.145,0.226,0.220,0.227,0.123,0.078,north-northwest,1.6,No
2021/07/08,05:40,0.155,0.145,0.225,0.219,0.227,0.122,0.077,north,1.8,No
2021/07/08,05:50,0.156,0.144,0.228,0.221,0.226,0.122,0.078,north-northwest,2.0,No
2021/07/08,06:00,0.158,0.143,0.226,0.221,0.227,0.123,0.078,north,2.1,No
2021/07/08,06:10,0.156,0.144,0.227,0.218,0.226,0.123,0.078,north,2.5,No
2021/07/08,06:20,0.157,0.145,0.227,0.221,0.225,0.122,0.079,north,2.6,No
2021/07/08,06:30,0.157,0.144,0.225,0.220,0.227,0.123,0.077,north,2.4,No
2021/07/08,06:40,0.155,0.145,0.226,0.219,0.227,0.123,0.078,north,2.6,No
2021/07/08,06:50,0.157,0.145,0.226,0.221,0.225,0.122,0.078,north-northwest,2.1,No
2021/07/08,07:00,0.156,0.144,0.225,0.221,0.227,0.123,0.077,north,2.7,No
2021/07/08,07:10,0.155,0.145,0.226,0.219,0.227,0.122,0.077,north-northwest,2.9,No
2021/07/08,07:20,0.157,0.144,0.227,0.220,0.224,0.121,0.078,north-northwest,2.6,No
2021/07/08,07:30,0.158,0.144,0.224,0.220,0.225,0.122,0.077,north,1.4,No
2021/07/08,07:40,0.156,0.145,0.226,0.220,0.228,0.123,0.077,north,2.0,No
2021/07/08,07:50,0.157,0.144,0.226,0.221,0.226,0.122,0.079,north,2.3,No
2021/07/08,08:00,0.158,0.144,0.224,0.222,0.226,0.122,0.077,north,2.4,No
2021/07/08,08:10,0.156,0.146,0.227,0.218,0.229,0.123,0.078,north,2.2,No
2021/07/08,08:20,0.158,0.144,0.227,0.220,0.227,0.122,0.079,north,2.3,No
2021/07/08,08:30,0.157,0.145,0.225,0.220,0.225,0.122,0.078,north,2.0,No
2021/07/08,08:40,0.156,0.147,0.228,0.219,0.228,0.123,0.079,north,1.7,No
2021/07/08,08:50,0.158,0.144,0.227,0.221,0.227,0.123,0.079,north,2.1,No
2021/07/08,09:00,0.157,0.146,0.226,0.222,0.226,0.123,0.079,north-northeast,2.4,No
2021/07/08,09:10,0.156,0.145,0.228,0.219,0.229,0.124,0.079,north,2.6,No
2021/07/08,09:20,0.159,0.146,0.228,0.222,0.228,0.124,0.080,north,2.2,No
2021/07/08,09:30,0.156,0.147,0.226,0.221,0.227,0.124,0.079,north-northeast,3.1,No
2021/07/08,09:40,0.157,0.146,0.227,0.219,0.228,0.124,0.079,north-northeast,2.7,No
2021/07/08,09:50,0.158,0.145,0.226,0.221,0.227,0.123,0.080,north,1.9,No
2021/07/08,10:00,0.156,0.146,0.227,0.222,0.226,0.122,0.078,north,2.5,No
2021/07/08,10:10,0.157,0.144,0.228,0.219,0.227,0.123,0.078,north-northeast,1.9,No
2021/07/08,10:20,0.158,0.145,0.227,0.222,0.228,0.123,0.079,north-northeast,2.7,No
2021/07/08,10:30,0.157,0.146,0.226,0.222,0.226,0.123,0.078,north,2.2,No
2021/07/08,10:40,0.158,0.144,0.228,0.219,0.225,0.123,0.078,north-northeast,1.5,No
2021/07/08,10:50,0.158,0.145,0.227,0.219,0.228,0.123,0.078,north,1.9,No
2021/07/08,11:00,0.157,0.145,0.226,0.220,0.227,0.122,0.078,north-northeast,2.3,No
2021/07/08,11:10,0.157,0.144,0.228,0.220,0.227,0.122,0.078,north-northeast,2.0,No
2021/07/08,11:20,0.158,0.145,0.226,0.219,0.224,0.123,0.078,north,1.9,No
2021/07/08,11:30,0.156,0.145,0.225,0.217,0.225,0.123,0.078,north,1.4,No
2021/07/08,11:40,0.156,0.144,0.225,0.221,0.228,0.122,0.078,north-northeast,1.8,No
2021/07/08,11:50,0.157,0.144,0.227,0.221,0.227,0.121,0.077,north-northeast,1.7,No
2021/07/08,12:00,0.158,0.145,0.228,0.220,0.226,0.123,0.077,north-northeast,1.5,No
2021/07/08,12:10,0.156,0.144,0.227,0.218,0.224,0.122,0.077,north-northeast,1.8,No
2021/07/08,12:20,0.156,0.144,0.225,0.221,0.226,0.122,0.078,north-northeast,1.5,No
2021/07/08,12:30,0.158,0.145,0.226,0.220,0.229,0.122,0.077,north,1.6,No
2021/07/08,12:40,0.157,0.145,0.228,0.220,0.227,0.122,0.078,north,1.6,No
2021/07/08,12:50,0.154,0.144,0.228,0.219,0.226,0.123,0.078,north-northeast,2.2,No
2021/07/08,13:00,0.158,0.145,0.226,0.220,0.225,0.122,0.078,north-northeast,2.4,No
2021/07/08,13:10,0.157,0.146,0.227,0.222,0.224,0.122,0.077,north,2.2,No
2021/07/08,13:20,0.156,0.145,0.229,0.222,0.226,0.122,0.078,north,1.8,No
2021/07/08,13:30,0.156,0.144,0.227,0.219,0.229,0.123,0.077,north-northeast,2.0,No
2021/07/08,13:40,0.157,0.145,0.225,0.218,0.228,0.123,0.078,north-northeast,1.7,No
2021/07/08,13:50,0.157,0.145,0.225,0.222,0.225,0.123,0.077,north-northeast,1.7,No
2021/07/08,14:00,0.156,0.145,0.229,0.223,0.225,0.123,0.077,north-northeast,1.7,No
2021/07/08,14:10,0.157,0.144,0.228,0.221,0.225,0.122,0.078,north,2.3,No
2021/07/08,14:20,0.157,0.145,0.228,0.220,0.226,0.123,0.078,north,2.2,No
2021/07/08,14:30,0.156,0.145,0.226,0.219,0.230,0.124,0.078,north-northeast,2.6,No
2021/07/08,14:40,0.157,0.144,0.227,0.223,0.228,0.123,0.077,north-northeast,2.2,No
2021/07/08,14:50,0.157,0.145,0.229,0.222,0.226,0.122,0.078,north-northeast,2.3,No
2021/07/08,15:00,0.158,0.145,0.227,0.220,0.226,0.123,0.078,north-northeast,2.5,No
2021/07/08,15:10,0.157,0.144,0.226,0.220,0.225,0.123,0.077,north-northeast,2.4,No
2021/07/08,15:20,0.157,0.144,0.228,0.222,0.229,0.122,0.077,north,2.6,No
2021/07/08,15:30,0.158,0.146,0.229,0.222,0.229,0.122,0.078,north-northeast,2.1,No
2021/07/08,15:40,0.157,0.146,0.227,0.219,0.226,0.122,0.078,northeast,2.1,No
2021/07/08,15:50,0.158,0.144,0.226,0.220,0.226,0.123,0.077,northeast,1.5,No
2021/07/08,16:00,0.158,0.146,0.230,0.221,0.230,0.123,0.078,north-northeast,1.4,No
2021/07/08,16:10,0.157,0.144,0.228,0.220,0.228,0.122,0.078,north,1.3,No
2021/07/08,16:20,0.158,0.144,0.228,0.221,0.226,0.123,0.078,north,1.7,No
2021/07/08,16:30,0.158,0.146,0.229,0.222,0.227,0.124,0.077,north-northeast,1.1,No
2021/07/08,16:40,0.156,0.145,0.228,0.221,0.230,0.123,0.078,north-northeast,1.7,No
2021/07/08,16:50,0.158,0.144,0.226,0.219,0.227,0.123,0.078,north-northeast,1.4,No
2021/07/08,17:00,0.158,0.146,0.228,0.223,0.225,0.124,0.078,north,1.4,No
2021/07/08,17:10,0.157,0.144,0.229,0.221,0.230,0.123,0.078,north-northeast,1.5,No
2021/07/08,17:20,0.158,0.146,0.226,0.221,0.228,0.122,0.078,north-northeast,1.3,No
2021/07/08,17:30,0.157,0.146,0.229,0.223,0.226,0.123,0.077,north-northeast,1.7,No
2021/07/08,17:40,0.157,0.144,0.228,0.222,0.228,0.123,0.078,north-northeast,1.9,No
2021/07/08,17:50,0.157,0.145,0.226,0.220,0.228,0.122,0.077,north,1.4,No
2021/07/08,18:00,0.158,0.146,0.229,0.223,0.226,0.122,0.078,north,1.6,No
2021/07/08,18:10,0.156,0.144,0.228,0.222,0.228,0.123,0.079,northwest,0.7,No
2021/07/08,18:20,0.158,0.147,0.226,0.221,0.228,0.122,0.078,north-northwest,0.7,No
2021/07/08,18:30,0.158,0.145,0.229,0.224,0.225,0.123,0.077,-,CALM,No
2021/07/08,18:40,0.156,0.144,0.227,0.222,0.228,0.124,0.078,north,1.2,No
2021/07/08,18:50,0.158,0.145,0.227,0.221,0.229,0.123,0.078,north-northeast,1.7,No
2021/07/08,19:00,0.157,0.145,0.230,0.222,0.227,0.123,0.077,north,1.7,No
2021/07/08,19:10,0.156,0.145,0.227,0.221,0.226,0.124,0.078,north,1.7,No
2021/07/08,19:20,0.157,0.146,0.229,0.221,0.229,0.123,0.078,north,2.7,No
2021/07/08,19:30,0.158,0.145,0.229,0.223,0.227,0.123,0.077,north,2.4,No
2021/07/08,19:40,0.157,0.146,0.227,0.222,0.227,0.123,0.078,north,3.3,No
2021/07/08,19:50,0.158,0.146,0.229,0.221,0.228,0.123,0.078,north-northwest,2.4,No
2021/07/08,20:00,0.157,0.144,0.229,0.223,0.226,0.123,0.078,north-northwest,2.7,No
2021/07/08,20:10,0.156,0.145,0.226,0.220,0.227,0.123,0.078,north,1.9,No
2021/07/08,20:20,0.158,0.145,0.229,0.222,0.229,0.123,0.078,north,2.6,No
2021/07/08,20:30,0.157,0.144,0.227,0.223,0.227,0.123,0.077,north,2.4,No
2021/07/08,20:40,0.157,0.146,0.229,0.220,0.228,0.124,0.078,north-northwest,2.9,No
2021/07/08,20:50,0.159,0.145,0.228,0.223,0.229,0.123,0.077,north-northwest,2.2,No
2021/07/08,21:00,0.158,0.145,0.226,0.222,0.226,0.123,0.077,north-northwest,2.3,No
2021/07/08,21:10,0.158,0.146,0.229,0.220,0.228,0.123,0.077,north-northwest,2.5,No
2021/07/08,21:20,0.158,0.144,0.228,0.222,0.228,0.122,0.078,north-northwest,2.8,No
2021/07/08,21:30,0.157,0.145,0.227,0.222,0.225,0.123,0.077,north-northwest,2.4,No
2021/07/08,21:40,0.158,0.146,0.229,0.219,0.230,0.124,0.078,north-northwest,2.3,No
2021/07/08,21:50,0.158,0.145,0.228,0.223,0.227,0.124,0.077,north-northwest,1.8,No
2021/07/08,22:00,0.157,0.146,0.229,0.221,0.225,0.122,0.078,north-northwest,1.4,No
2021/07/08,22:10,0.158,0.145,0.229,0.221,0.229,0.123,0.078,north,2.0,No
2021/07/08,22:20,0.157,0.145,0.226,0.223,0.228,0.123,0.078,north-northwest,2.3,No
2021/07/08,22:30,0.157,0.146,0.229,0.221,0.226,0.123,0.078,north-northwest,2.6,No
2021/07/08,22:40,0.159,0.145,0.229,0.221,0.229,0.123,0.079,north-northwest,2.8,Yes
2021/07/08,22:50,0.157,0.145,0.227,0.223,0.227,0.122,0.077,north-northwest,3.0,Yes
2021/07/08,23:00,0.157,0.145,0.229,0.221,0.226,0.123,0.078,north-northwest,3.2,Yes
2021/07/08,23:10,0.159,0.145,0.227,0.223,0.231,0.124,0.079,north-northwest,3.7,Yes
2021/07/08,23:20,0.157,0.147,0.229,0.222,0.227,0.124,0.079,northwest,2.3,Yes
2021/07/08,23:30,0.158,0.146,0.229,0.221,0.229,0.124,0.079,north-northwest,1.8,Yes
2021/07/08,23:40,0.159,0.147,0.227,0.223,0.230,0.124,0.079,north-northwest,3.4,No
2021/07/08,23:50,0.158,0.145,0.230,0.220,0.226,0.124,0.079,north-northwest,3.7,Yes
